Location: Unspecified
(0.0000°N, 0.0000°E)
Time: 10:12:02
(UTC+00:00)

N. Korean satellite - Visible Passes

Search period start: 22 January 2017 00:00
Search period end: 01 February 2017 00:00
Orbit: 463 x 519 km, 97.2° (Epoch: 21 January)

Date Brightness Start Highest point End Pass type
(mag) Time Alt. Az. Time Alt. Az. Time Alt. Az.
22 Jan 9.6 19:30:30 10° SW 19:32:52 17° W 19:35:14 10° WNW visible
23 Jan 7.9 19:07:19 10° S 19:10:37 41° W 19:13:55 10° NNW visible
24 Jan 6.4 18:44:53 10° SSE 18:48:21 74° E 18:51:50 10° N visible
26 Jan 9.8 19:35:08 10° SW 19:37:10 15° W 19:39:13 10° WNW visible
27 Jan 8.4 19:11:42 10° SSW 19:14:54 34° W 19:18:07 10° NW visible
28 Jan 6.5 18:49:08 10° S 18:52:38 90° N 18:56:09 10° N visible
30 Jan 10.0 19:39:48 10° SW 19:41:25 13° W 19:43:01 10° WNW visible
31 Jan 8.7 19:16:03 10° SSW 19:19:07 29° W 19:22:14 10° NW visible
